www.pogodaiklimat.ru

Погода и климат >> Архив погоды >> Дания >> Хольбек


ПОГОДА в Хольбеке

  • Прогноз погоды в Хольбеке
  • Монитор погоды в Хольбеке

АРХИВ ПОГОДЫ в Хольбеке

Время (UTC), дата Ветер
(напр.,м/с)
 
Видим.   Явления Облачность Т
(С)
Тd
(С)
f
(%)
Тe
(С)
Тes
(С)
Комфортность P
(гПа)
Po
(гПа)
Тmin
(С)
Tmax
(С)
R
(мм)
R24
(мм)
S
(см)
01 10.09 С 1 2500 м слаб. ливневой дождь {осадки} 9/9 150 м
[]
+15.1 +14.8 98 +16 +16 1008.7 1007.1
02 10.09 СВ 1 2700 м дождь {ливн. осадки} 6/6 150 м
[]
+15.2 +15.0 99 +16 +16 1008.1 1006.5 1
03 10.09 штиль 0 1000 м слаб. дождь ясно +15.1 +14.8 98 +15 +15 1007.7 1006.1 2
04 10.09 СЗ 1 1900 м слаб. дождь {морось} 1/1 150 м
[]
+15.1 +14.9 99 +16 +16 1007.3 1005.7 0.2
05 10.09 З 1 1000 м морось {дождь} 6/6 90 м
[]
+15.0 +14.8 99 +15 +15 1007.5 1005.9 0.8
06 10.09 С 1 1400 м сильн. дождь {ливн. осадки} 9/9 180 м
[]
+15.1 +14.9 99 +16 +16 1007.6 1006.0 +14.5 +15.3 2
07 10.09 СЗ 2 3800 м слаб. дождь {морось} 6/6 700 м
[]
+15.6 +15.4 99 +16 +17 1007.6 1006.0 1
08 10.09 З 4 6000 м слаб. морось {дождь} 9/9 90 м
[]
+16.1 +15.7 97 +15 +16 1007.3 1005.8 0.1
09 10.09 СЗ 4 12 км слаб. морось {дождь} 9/9 120 м
[]
+16.4 +15.7 96 +16 +16 1007.5 1006.0 2
10 10.09 СЗ 3 8000 м дождь {морось} 9/9 90 м
[]
+16.6 +16.1 97 +16 +17 1007.8 1006.2 0.6
11 10.09 СЗ 3 7000 м дождь 9/9 90 м
[]
+16.4 +15.9 97 +16 +17 1008.0 1006.4 3
12 10.09 СЗ 4 12 км слаб. дождь {морось} 9/9 150 м
[]
+16.5 +15.7 95 +16 +16 1008.2 1006.6 5
13 10.09 СЗ 5 3500 м дождь 9/9 90 м
[]
+16.2 +15.6 96 +15 +15 1008.5 1006.9 1
14 10.09 З 5 5000 м сильн. дождь 9/9 90 м
[]
+15.7 +15.2 97 +14 +15 1009.0 1007.4 2
15 10.09 З 7 7000 м дождь 9/9 120 м
[]
+15.2 +14.6 96 +13 +13 1009.3 1007.7 7
16 10.09 З 8 8000 м слаб. дождь {морось} 9/9 210 м
[]
+14.9 +14.0 94 +13 +13 1010.0 1008.4 0.9
17 10.09 З 7 12 км слаб. дождь {морось} 9/9 240 м
[]
+14.8 +13.8 94 +13 +13 1010.6 1009.0 0.6
18 10.09 З 7 12 км морось {дождь} 9/9 270 м
[]
+14.6 +13.5 93 +12 +12 1011.1 1009.5 +14.5 +16.7 2
19 10.09 З 5 5000 м сильн. морось {дождь} 9/9 210 м
[]
+14.5 +13.7 95 +13 +13 1011.7 1010.1 0.2
20 10.09 З 6 5000 м морось {дождь} 9/9 270 м
[]
+14.7 +13.6 93 +13 +13 1012.2 1010.6 2
21 10.09 З 8 3400 м морось {дождь} 9/9 270 м
[]
+14.5 +13.4 93 +12 +12 1012.7 1011.1 2
22 10.09 З 8 4200 м морось 9/9 210 м
[]
+13.9 +13.0 94 +11 +11 1013.1 1011.5 0.4
23 10.09 З 7 11 км слаб. ливневой дождь {морось} 9/9 360 м
[]
+14.2 +12.8 91 +12 +12 1013.5 1011.9
00 11.09 З 7 30 км {ливн. осадки, дождь} 10/10 420 м
[]
+14.2 +12.1 87 +12 +12 1014.2 1012.6 0.4
01 11.09 З 7 29 км 10/10 1140 м
[]
+14.2 +11.7 85 +12 +12 1014.7 1013.0
02 11.09 З 6 25 км 1/0
[]
+13.3 +11.4 88 +11 +11 1015.2 1013.6
03 11.09 З 5 27 км ясно +12.8 +11.3 91 +10 +10 1015.4 1013.8
04 11.09 ЮЗ 4 24 км 1/0
[]
+12.4 +11.2 92 +11 +11 1015.9 1014.3
05 11.09 ЮЗ 3 26 км ясно +12.0 +10.8 92 +10 +10 1016.1 1014.4
06 11.09 Ю 3 26 км 1/1 720 м
[]
+12.6 +11.3 92 +11 +12 1016.3 1014.7 +11.8 +14.8
07 11.09 ЮЗ 4 28 км ясно +14.6 +12.2 86 +13 +15 1016.6 1015.0
08 11.09 ЮЗ 6 35 км 1/1 630 м
[]
+15.7 +11.6 77 +14 +16 1016.6 1015.0
09 11.09 Ю 6 30 км 1/1 750 м
[]
+16.6 +11.8 73 +15 +17 1016.4 1014.8
10 11.09 Ю 8 30 км 1/1 720 м
[]
+16.8 +11.8 72 +15 +17 1016.3 1014.7
11 11.09 ЮЗ 8 35 км 1/1 1500 м
[]
+17.3 +12.0 71 +16 +18 1016.0 1014.4
12 11.09 ЮЗ 9-15
{15}
30 км 1/1 960 м
[]
+17.7 +11.5 67 +17 +17 1015.7 1014.1
13 11.09 Ю 9 30 км 1/1 1300 м
[]
+17.2 +11.9 71 +16 +17 1015.4 1013.8
14 11.09 Ю 9 30 км 4/4 930 м
[]
+17.1 +11.5 70 +16 +16 1015.0 1013.4
15 11.09 Ю 8
{15}
14 км слаб. дождь {морось} 9/9 840 м
[]
+15.6 +12.5 82 +14 +14 1014.7 1013.1 0.3
16 11.09 Ю 7 12 км слаб. ливневой дождь 9/9 1080 м
[]
+15.1 +12.9 87 +13 +13 1014.5 1012.9 0.2
17 11.09 ЮЗ 8 5000 м слаб. ливневой дождь 9/9 400 м
[]
+14.5 +12.8 90 +12 +12 1014.7 1013.1 0.2
18 11.09 Ю 6
{15}
5000 м дождь {ливн. осадки} 9/9 120 м
[]
+14.0 +13.2 95 +12 +12 1014.5 1012.9 +12.6 +17.9 2
19 11.09 ЮЗ 8 7000 м дождь 9/9 210 м
[]
+14.2 +13.1 93 +12 +12 1014.3 1012.7 2
20 11.09 ЮЗ 6 8000 м слаб. ливневой дождь 9/9 240 м
[]
+14.3 +13.2 93 +12 +12 1014.6 1013.0 0.5
21 11.09 ЮЗ 6
{13}
35 км слаб. дождь 10/10 240 м
[]
+14.6 +13.5 93 +13 +13 1015.0 1013.4 3
22 11.09 ЮЗ 4 30 км {дождь} 6/6 330 м
[]
+14.5 +13.6 94 +13 +13 1015.5 1013.9
23 11.09 З 4 21 км 4/4 360 м
[]
+14.5 +13.4 93 +13 +13 1016.1 1014.5
00 12.09 З 5
{13}
15 км {ливн. осадки, дождь} 1/1 700 м
[]
+14.0 +12.9 93 +12 +12 1016.8 1015.2 0.0
01 12.09 ЮЗ 4 12 км 4/0
[]
+13.4 +12.3 93 +12 +12 1017.7 1016.1
02 12.09 ЮЗ 3 12 км 1/0
[]
+13.1 +12.1 94 +12 +12 1018.1 1016.5
03 12.09 Ю 2 10 км ясно +11.4 +10.5 94 +10 +10 1018.7 1017.1
04 12.09 Ю 3 11 км ясно +11.7 +11.0 95 +10 +10 1019.1 1017.5
05 12.09 ЮЗ 3 12 км ясно +12.0 +11.1 94 +10 +10 1019.8 1018.2
06 12.09 ЮЗ 3 13 км {дымка} ясно +12.9 +11.8 93 +11 +12 1020.5 1018.8 +11.2 +14.7
07 12.09 ЮЗ 4 14 км ясно +14.7 +12.7 88 +14 +15 1020.9 1019.2
08 12.09 ЮЗ 6 21 км 1/1 1500 м
[]
+16.3 +12.6 79 +15 +17 1021.3 1019.7
09 12.09 ЮЗ 6 21 км 6/6 1320 м
[]
+16.9 +12.8 77 +16 +17 1021.7 1020.1
10 12.09 ЮЗ 5 21 км в посл. час морось {ливн. осадки, дождь} 9/9 570 м
[]
+16.7 +13.2 80 +16 +16 1022.2 1020.6
11 12.09 ЮЗ 7 23 км 1/1 870 м
[]
+18.8 +12.6 67 +19 +21 1022.1 1020.5
12 12.09 З 9 29 км {ливн. осадки, дождь} 9/9 960 м
[]
+18.0 +11.8 67 +17 +17 1022.2 1020.6 0.0
13 12.09 ЮЗ 6 30 км 4/4 870 м
[]
+17.9 +12.5 71 +17 +19 1022.4 1020.8
14 12.09 З 7 27 км 6/6 840 м
[]
+18.3 +12.2 68 +18 +19 1022.4 1020.8
15 12.09 З 7 30 км 4/4 1500 м
[]
+18.1 +10.0 59 +17 +18 1022.3 1020.7
16 12.09 ЮЗ 6 30 км 1/1 1500 м
[]
+17.6 +11.0 65 +17 +17 1022.3 1020.7
17 12.09 ЮЗ 4 30 км ясно +16.7 +11.3 70 +16 +16 1022.3 1020.7
18 12.09 ЮЗ 4 29 км 4/4 1500 м
[]
+16.1 +11.3 73 +15 +15 1022.5 1020.8 +12.8 +19.1
19 12.09 ЮЗ 3 25 км 9/9 930 м
[]
+15.5 +11.9 79 +15 +15 1022.6 1021.0
20 12.09 ЮЗ 4 24 км 9/9 1300 м
[]
+15.8 +12.1 79 +15 +15 1022.4 1020.8
21 12.09 ЮЗ 4 21 км 9/9 960 м
[]
+15.6 +12.5 82 +15 +15 1021.8 1020.2
22 12.09 ЮЗ 5 19 км 10/10 720 м
[]
+15.7 +12.8 83 +14 +14 1021.5 1019.9
23 12.09 ЮЗ 4 15 км слаб. ливневой дождь 9/9 840 м
[]
+15.8 +13.1 84 +15 +15 1021.0 1019.4
00 13.09 ЮЗ 4 15 км {ливн. осадки, дождь} 10/10 630 м
[]
+15.5 +13.2 86 +15 +15 1020.6 1019.0 0.0
01 13.09 ЮЗ 4 4800 м морось {ливн. осадки} 10/10 330 м
[]
+14.8 +13.8 94 +14 +14 1019.7 1018.1
02 13.09 Ю 3 5000 м ливневой дождь {морось} 9/9 360 м
[]
+15.0 +14.1 94 +14 +14 1018.4 1016.8 0.7
03 13.09 ЮЗ 7 9000 м слаб. ливневой дождь {морось} 9/9 180 м
[]
+15.9 +14.9 94 +14 +14 1018.0 1016.4 1
04 13.09 СЗ 6 5000 м сильн. морось {ливн. осадки} 9/9 90 м
[]
+13.7 +13.1 96 +12 +12 1019.7 1018.1 1
05 13.09 СЗ 5 50 км в посл. час морось 9/9 750 м
[]
+13.2 +11.1 87 +11 +11 1021.1 1019.5 0.1
06 13.09 З 5
{12}
35 км в посл. час морось {ливн. осадки, дождь} 4/4 600 м
[]
+13.9 +11.3 84 +12 +12 1022.2 1020.5 +13.0 +16.3 1
07 13.09 З 7 26 км 1/1 630 м
[]
+14.6 +10.8 78 +13 +13 1023.0 1021.4
08 13.09 СЗ 8 25 км 1/1 800 м
[]
+15.1 +10.0 72 +13 +14 1023.9 1022.3
09 13.09 З 9
{13}
20 км 1/1 800 м
[]
+15.3 +9.9 70 +13 +14 1025.0 1023.4
10 13.09 З 10 22 км 1/1 870 м
[]
+15.8 +9.9 68 +14 +14 1025.7 1024.0
11 13.09 З 10 27 км 1/1 1000 м
[]
+16.6 +8.5 59 +15 +15 1026.5 1024.9
12 13.09 З 10
{14}
24 км 1/1 1170 м
[]
+15.8 +8.5 62 +14 +14 1026.9 1025.3
13 13.09 З 9 21 км 1/1 1500 м
[]
+16.5 +8.8 60 +15 +15 1027.5 1025.9
14 13.09 З 9 23 км ясно +16.3 +8.4 59 +15 +15 1028.1 1026.4
15 13.09 З 10
{15}
н/о ясно +16.2 +7.1 55 +14 +14 1028.6 1026.9
16 13.09 З 8 30 км ясно +15.5 +8.2 62 +14 +14 1028.5 1026.9
17 13.09 З 6 35 км 1/1 1170 м
[]
+14.7 +8.4 66 +13 +13 1029.1 1027.4
18 13.09 З 7
{15}
40 км ясно +14.0 +7.2 64 +12 +12 1029.7 1028.1 +13.8 +17.2
19 13.09 З 7 30 км ясно +13.7 +7.2 65 +11 +11 1030.0 1028.3
20 13.09 З 7 23 км ясно +13.2 +8.2 72 +11 +11 1030.3 1028.7
21 13.09 З 6 21 км ясно +12.8 +7.7 71 +10 +10 1030.9 1029.3
22 13.09 З 6 20 км 1/0
[]
+12.8 +8.2 74 +10 +10 1031.3 1029.7
23 13.09 З 5 20 км ясно +12.5 +8.3 76 +10 +10 1031.2 1029.5
00 14.09 З 6 19 км ясно +12.4 +8.2 76 +10 +10 1030.8 1029.1
01 14.09 З 5 18 км 6/6 720 м
[]
+12.2 +8.8 80 +10 +10 1031.3 1029.6
02 14.09 З 6 19 км ясно +12.2 +8.5 78 +10 +10 1031.4 1029.7
03 14.09 З 5 19 км ясно +11.8 +8.7 81 +9 +9 1031.3 1029.7
04 14.09 З 5 20 км ясно +12.0 +8.6 80 +10 +10 1031.2 1029.6
05 14.09 З 5 23 км ясно +12.0 +8.2 78 +10 +10 1031.5 1029.9
06 14.09 З 5 22 км ясно +12.8 +8.1 73 +11 +11 1031.6 1029.9 +11.4 +14.3
07 14.09 З 5 24 км ясно +14.1 +8.9 71 +13 +14 1031.9 1030.3
08 14.09 З 7 22 км ясно +14.8 +9.1 69 +13 +14 1032.0 1030.3
09 14.09 З 7 28 км ясно +15.2 +8.2 63 +13 +15 1032.0 1030.3
10 14.09 З 8 27 км 4/4 1000 м
[]
+15.7 +8.3 61 +14 +15 1031.7 1030.1
11 14.09 З 9 23 км 1/1 960 м
[]
+16.1 +8.2 59 +14 +15 1031.5 1029.9
12 14.09 З 7 27 км 1/1 1020 м
[]
+16.0 +8.0 59 +15 +16 1030.9 1029.3
13 14.09 З 8 28 км ясно +16.4 +7.7 56 +15 +16 1030.4 1028.8
14 14.09 З 7 35 км 1/1 1350 м
[]
+16.5 +7.5 55 +15 +17 1029.5 1027.9
15 14.09 ЮЗ 7 40 км 4/4 1260 м
[]
+16.4 +7.5 56 +15 +16 1028.6 1027.0
16 14.09 ЮЗ 6 35 км ясно +16.4 +6.7 53 +15 +16 1027.8 1026.1
17 14.09 З 3 40 км ясно +13.9 +8.5 70 +13 +13 1027.3 1025.7
18 14.09 ЮЗ 3 45 км ясно +12.8 +8.0 73 +12 +12 1026.6 1025.0 +12.7 +17.2
19 14.09 ЮЗ 4 45 км 1/0
[]
+13.2 +8.3 72 +12 +12 1025.8 1024.2
20 14.09 ЮЗ 4 45 км ясно +12.7 +8.7 77 +11 +11 1024.6 1023.0
21 14.09 ЮЗ 6 35 км 1/0
[]
+13.3 +8.9 75 +11 +11 1023.6 1021.9
22 14.09 ЮЗ 6 29 км 1/0
[]
+13.3 +9.9 80 +11 +11 1022.6 1021.0
23 14.09 ЮЗ 6 35 км 6/0 2000 м
[]
+13.6 +9.6 77 +11 +11 1021.3 1019.7
00 15.09 ЮЗ 8-13
{13}
35 км 9/0
[]
+14.0 +9.8 76 +12 +12 1020.1 1018.5
01 15.09 ЮЗ 8 30 км 9/0
[]
+14.1 +10.3 78 +12 +12 1018.3 1016.6
02 15.09 ЮЗ 8 30 км 9/0
[]
+14.0 +10.6 80 +11 +11 1017.2 1015.5
03 15.09 ЮЗ 8
{14}
30 км 1/0
[]
+13.9 +10.3 79 +11 +11 1016.1 1014.4
04 15.09 ЮЗ 8 29 км 6/0
[]
+14.1 +10.4 78 +12 +12 1014.6 1013.0
05 15.09 ЮЗ 8 29 км 9/0
[]
+14.4 +10.6 78 +12 +12 1013.3 1011.7
06 15.09 ЮЗ 8-13
{14}
24 км 9/9 930 м
[]
+14.9 +11.3 79 +13 +13 1012.5 1010.9 +12.2 +14.9
07 15.09 ЮЗ 10 12 км 9/9 480 м
[]
+15.6 +12.5 82 +13 +13 1012.0 1010.4
08 15.09 ЮЗ 9 14 км слаб. ливневой дождь 9/9 330 м
[]
+15.3 +13.4 88 +13 +13 1011.7 1010.1
09 15.09 ЮЗ 8
{15}
7000 м слаб. ливневой дождь 9/9 270 м
[]
+15.3 +13.8 91 +13 +13 1011.8 1010.2 0.0
10 15.09 З 9 30 км в посл. час дождь {ливн. осадки} 9/9 720 м
[]
+14.8 +9.6 71 +12 +13 1012.4 1010.8
11 15.09 З 8 22 км 9/9 1230 м
[]
+15.5 +10.5 72 +14 +14 1012.5 1010.9
12 15.09 З 11-17
{18}
15 км {ливн. осадки, дождь} 9/9 1020 м
[]
+15.6 +8.0 61 +13 +13 1012.9 1011.3 0.0
13 15.09 З 8 20 км 1/1 1110 м
[]
+15.8 +8.4 61 +14 +15 1012.7 1011.1
14 15.09 З 11 18 км 6/6 1410 м
[]
+15.7 +7.0 56 +14 +14 1012.6 1011.1
15 15.09 З 10-15
{16}
13 км 6/6 1170 м
[]
+14.4 +6.4 59 +12 +12 1013.3 1011.7
16 15.09 З 10 14 км 9/9 1140 м
[]
+13.9 +6.5 61 +11 +11 1013.3 1011.7
17 15.09 З 10 13 км 6/6 1080 м
[]
+13.8 +7.4 65 +11 +11 1012.9 1011.3
18 15.09 З 10
{16}
13 км 6/6 1000 м
[]
+13.5 +6.9 64 +11 +11 1013.2 1011.6 +13.2 +16.7
19 15.09 З 8 17 км 6/6 1110 м
[]
+13.1 +6.4 64 +10 +10 1013.2 1011.6
20 15.09 З 9 13 км 4/4 1110 м
[]
+12.8 +7.0 68 +10 +10 1013.5 1011.8
21 15.09 З 9
{17}
16 км 4/4 1350 м
[]
+12.6 +6.5 66 +10 +10 1013.9 1012.2
22 15.09 З 9 17 км 9/9 1020 м
[]
+12.9 +6.7 66 +10 +10 1014.1 1012.5
23 15.09 З 11 17 км 9/9 1000 м
[]
+13.0 +6.9 66 +10 +10 1014.2 1012.6
00 16.09 З 10
{17}
17 км 9/9 930 м
[]
+12.7 +7.0 68 +9 +9 1014.1 1012.5
01 16.09 З 9 17 км 6/6 870 м
[]
+12.5 +7.2 70 +9 +9 1014.6 1013.0
02 16.09 З 9 16 км 4/4 800 м
[]
+12.2 +7.3 72 +9 +9 1014.6 1012.9
03 16.09 З 9-14
{15}
17 км 1/1 1020 м
[]
+11.9 +6.2 68 +9 +9 1014.2 1012.6
04 16.09 З 9 16 км 6/0
[]
+11.8 +6.1 68 +8 +8 1014.1 1012.4
05 16.09 З 8 15 км 4/4 960 м
[]
+11.8 +6.0 68 +9 +9 1013.9 1012.3
06 16.09 З 10
{15}
16 км 4/0
[]
+12.0 +6.0 67 +9 +9 1013.7 1012.1 +11.6 +13.6
07 16.09 З 10 16 км 1/0
[]
+12.9 +6.9 67 +10 +10 1013.8 1012.2
08 16.09 З 9 15 км 4/4 800 м
[]
+13.0 +6.8 66 +10 +10 1013.9 1012.2
09 16.09 З 11
{17}
18 км ясно +13.6 +6.0 60 +11 +11 1013.8 1012.2
10 16.09 З 11 17 км ясно +14.1 +5.2 55 +11 +11 1013.9 1012.3
11 16.09 З 11 22 км 1/0
[]
+14.7 +5.1 53 +12 +12 1014.0 1012.3
12 16.09 З 11-16
{17}
24 км 4/4 1260 м
[]
+14.5 +4.8 52 +12 +12 1013.9 1012.3
13 16.09 З 9 24 км ясно +15.0 +4.9 51 +13 +13 1013.8 1012.2
14 16.09 З 11 26 км 1/0
[]
+15.0 +5.0 51 +13 +13 1013.6 1012.0
15 16.09 З 9
{16}
27 км 1/0
[]
+15.3 +5.8 53 +13 +14 1013.5 1011.9
16 16.09 З 9 40 км 1/1 1020 м
[]
+14.2 +6.9 61 +12 +12 1013.3 1011.7
17 16.09 З 6 40 км 1/1 1110 м
[]
+13.4 +7.1 66 +11 +11 1013.5 1011.9
18 16.09 З 7
{16}
50 км 1/1 1170 м
[]
+12.9 +6.8 66 +10 +10 1013.7 1012.0 +11.9 +15.7
19 16.09 З 8 40 км ясно +12.4 +6.5 67 +9 +9 1013.7 1012.1
20 16.09 З 8 30 км 1/1 870 м
[]
+12.2 +7.4 72 +9 +9 1013.5 1011.9
21 16.09 З 6
{13}
30 км 4/4 750 м
[]
+11.6 +7.6 76 +9 +9 1013.0 1011.3
22 16.09 З 6 30 км 4/4 800 м
[]
+11.5 +7.4 76 +9 +9 1012.6 1011.0
23 16.09 З 5 26 км 1/1 840 м
[]
+11.0 +7.5 79 +8 +8 1012.2 1010.6
00 17.09 З 6
{13}
27 км 1/1 750 м
[]
+10.7 +7.5 81 +8 +8 1011.5 1009.9
01 17.09 З 7 35 км 6/6 750 м
[]
+11.4 +7.5 77 +8 +8 1011.1 1009.5

 

Местоположение метеостанции Хольбек (Дания): широта 55.73 долгота 11.60 высота над уровнем моря 13 м.

В архиве по умолчанию представлена погода в Хольбеке за последнюю неделю. Архивные данные за месяц целиком и за предыдущие месяцы, начиная с января 2011 года, Вы можете получить, выбрав интересующий диапазон дат из раскрывающегося списка и нажав кнопку "Ввод!".


*Определитесь, кто Вы:
робот инопланетянин человек

Внимание! Время в таблицах - всемирное. Для получения местного времени необходимо прибавить поправку, которая равна 1 ч.

Смотрите также архив погоды в соседних городах и на ближайших метеорологических станциях:

Погода в Роскилле (Дания) (37 км)
Погода в Гнибене (Дания) (38 км)
Погода на Мысе Roesnaes (Дания) (46 км)
Погода в Флаккебэрге (Дания) (47 км)
Погода в Кёге (Дания) (50 км)
Погода в Сяелсмарке (Дания) (53 км)
Погода в Тысофте (Дания) (56 км)
Погода в Копенгагене Jaegers (Дания) (58 км)
Погода в Бранделеве (Дания) (60 км)
Погода на Мысе Nakkehoved (Дания) (64 км)

Пояснения к столбцам:

Ветер - указаны скорость ветра в м/с - средняя за 10 мин, порывы в срок и между сроками (в фигурных скобках) и направление, откуда дует ветер: С - северный, СВ - северо-восточный, В - восточный, ЮВ - юго-восточный, Ю - южный, ЮЗ - юго-западный, З - западный, СЗ - северо-западный.
Видимость - горизонтальная дальность видимости в метрах или километрах. При видимости от 1 до 10 км при отсутствии осадков обычно наблюдается дымка, при ухудшении видимости до 1 км и менее - туман. В сухую погоду видимость может ухудшаться дымом, пылью или мглою.
Явления - указаны атмосферные явления, наблюдавшиеся в срок или в последний час перед сроком; фигурными скобками обозначены явления, наблюдавшиеся между сроками (за 1-3 часа до срока); квадратными скобками обозначены град или гололедные отложения с указанием их диаметра в мм.
Облачность - указаны через наклонную черту общая и нижняя облачность в баллах и высота нижней границы облаков в метрах; квадратными скобками обозначены формы облаков: Ci - перистые, Cs - перисто-слоистые, Cc - перисто-кучевые, Ac - высококучевые, As - высокослоистые, Sc - слоисто-кучевые, Ns - слоисто-дождевые, Cu - кучевые, Cb - кучево-дождевые. Подробнее классификацию облаков см. в Атласе облаков (PDF).
T - Температура воздуха - температура, измеренная на высоте 2 м над землей.
Td - Температура точки росы - температура, при понижении до которой содержащийся в воздухе водяной пар достигнет насыщения.
f - Относительная влажность воздуха - влажноcть воздуха, измеренная на высоте 2 м над землей.
Te - Эффективная температура - температура, которую ощущает одетый по сезону человек в тени. Характеристика душности погоды. При расчете учитывается влияние влажности воздуха и скорости ветра на теплоощущения человека.
Tes - Эффективная температура на солнце - температура, которую ощущает человек, с поправкой на солнечный нагрев. Характеристика знойности погоды. Зависит от высоты солнца над горизонтом, облачности и скорости ветра. Ночью, в пасмурную погоду, а также при ветре 12 м/с и более поправка равна нулю.
P - Атмосферное давление - приведенное к уровню моря атмосферное давление.
Po - Атмосферное давление - измеренное на уровне метеостанции атмосферное давление.
Tmin - Минимальная температура - минимум температуры воздуха на высоте 2 м над землей.
Tmax - Максимальная температура - максимум температуры воздуха на высоте 2 м над землей.
R - Количество осадков - Количество выпавших осадков за период времени, мм. При наведении курсора мыши на число - период времени, за который выпало указанное количество осадков.
R24 - Количество осадков - Количество выпавших осадков за 24 часа, мм.
S - Снежный покров - Высота снежного покрова, см. При наведении курсора мыши на число - состояние снежного покрова и степень покрытия местности в баллах.